Regional Weather Roundup
Issued by NWS Sioux Falls, SD

Home | Current Version | Previous Version | Graphics & Text | Print | Product List | Glossary On
Versions: 1 2 3 4 5 6 7 8 9 10 11 12 13 14 15 16 17 18 19 20 21 22 23 24 25 26 27 28 29 30 31 32 33 34 35 36 37 38 39 40 41 42 43 44 45 46 47 48 49 50
000
ASUS43 KFSD 312102
RWRFSD

WEATHER ROUNDUP FOR SE SOUTH DAKOTA/SW MINNESOTA/NW IOWA
NATIONAL WEATHER SERVICE SIOUX FALLS SD
400 PM CDT THU JUL 31 2014

NOTE: "FAIR" INDICATES FEW OR NO CLOUDS BELOW 12,000 FEET WITH NO
SIGNIFICANT WEATHER AND OR OBSTRUCTIONS TO VISIBILITY.


SDZ038>040-050-052>070-312200-
SOUTHEAST SOUTH DAKOTA

CITY           SKY/WX    TMP DP  RH WIND       PRES   REMARKS
CHAMBERLAIN    MOSUNNY   84  56  38 CALM      30.05F
HURON          MOSUNNY   82  52  35 W5        30.04F
MADISON        FAIR      77  57  50 N7        30.07F
MITCHELL       SUNNY     82  60  47 CALM      30.05F
SIOUX FALLS    MOSUNNY   79  56  45 CALM      30.06F
WINNER         MOCLDY    87  51  28 VRB5      30.06F
YANKTON        MOSUNNY   73  61  64 NE10      30.07S
$$

MNZ071-072-080-081-089-090-097-098-312200-
SOUTHWEST MINNESOTA

CITY           SKY/WX    TMP DP  RH WIND       PRES   REMARKS
FAIRMONT       PTSUNNY   81  54  39 N5        30.05F
JACKSON        PTSUNNY   77  55  47 NW3       30.07S
LUVERNE        MOSUNNY   79  59  50 SW9       30.06F
MARSHALL       SUNNY     81  52  36 N5        30.05S
MONTEVIDEO     MOSUNNY   84  57  39 CALM      30.05S
PIPESTONE      MOSUNNY   79  55  44 W7        30.06F
REDWOOD FALLS  MOSUNNY   83  49  30 W7        30.04S
TRACY          SUNNY     80  56  43 CALM      30.06S
WINDOM         PTSUNNY   79  57  47 W3        30.06S
WORTHINGTON    MOSUNNY   79  57  47 SW5       30.08S
$$

IAZ001>003-012>014-020>022-031-032-NEZ013-014-SDZ071-312200-
NORTHWEST IOWA

CITY           SKY/WX    TMP DP  RH WIND       PRES   REMARKS
CHEROKEE       MOSUNNY   76  59  55 SW10      30.08S
DENISON        CLOUDY    70  64  83 NE3       30.07F
ESTHERVILLE    PTSUNNY   78  57  48 W6        30.05F
SIOUX CITY     MOSUNNY   73  62  68 E8        30.06F
SPENCER        CLOUDY    77  59  53 CALM      30.06F
STORM LAKE     MOSUNNY   75  61  60 W10       30.09F
$$

ABBREVIATIONS USED IN REMARKS
   TC - TEMPERATURE IN CELSIUS
  WCI - WIND CHILL INDEX
   HX - HEAT INDEX
  VSB - VISIBILITY




USA.gov is the U.S. government's official web portal to all federal, state and local government web resources and services.